This is the latest recevied weather packets stored in our database for station/object KC3ELT-10. If no packets are shown the sender has not sent any weather packets the latest 10 day(s).
| Time | Temp. | Humidity | Pressure | Rain* | Wind** | Luminosity | Snow |
|---|---|---|---|---|---|---|---|
| 1777651679 | 11.67° C | 56% | 1007.6 hPa | 0 mm | 1.79 m/s, 359° | - | - |
| 1777651379 | 11.67° C | 57% | 1007.6 hPa | 0 mm | 1.79 m/s, 319° | - | - |
| 1777651079 | 11.67° C | 58% | 1007.8 hPa | 0 mm | 0.89 m/s, 204° | - | - |
| 1777650779 | 11.67° C | 58% | 1007.8 hPa | 0 mm | 2.24 m/s, 285° | - | - |
| 1777650479 | 11.67° C | 56% | 1007.8 hPa | 0 mm | 0.89 m/s, 270° | - | - |
| 1777650179 | 11.67° C | 61% | 1008.2 hPa | 0 mm | 0.45 m/s, 188° | - | - |
| 1777649879 | 11.11° C | 59% | 1008.2 hPa | 0 mm | 0 m/s | - | - |
| 1777649579 | 10.56° C | 62% | 1008.2 hPa | 0 mm | 0.89 m/s, 36° | - | - |
| 1777649279 | 10.56° C | 61% | 1008.2 hPa | 0 mm | 0.45 m/s, 359° | - | - |
| 1777648979 | 10.56° C | 59% | 1008.2 hPa | 0 mm | 2.68 m/s, 319° | - | - |
| 1777648679 | 10.56° C | 58% | 1008.2 hPa | 0 mm | 0.45 m/s, 278° | - | - |
| 1777648379 | 10.56° C | 60% | 1008 hPa | 0 mm | 1.34 m/s, 276° | - | - |
| 1777648079 | 10.56° C | 60% | 1008 hPa | 0 mm | 1.34 m/s, 288° | - | - |
| 1777647779 | 10.56° C | 63% | 1008 hPa | 0 mm | 0 m/s | - | - |
| 1777647479 | 10° C | 62% | 1008 hPa | 0 mm | 1.34 m/s, 225° | - | - |
| 1777647179 | 9.44° C | 62% | 1008 hPa | 0 mm | 2.68 m/s, 294° | - | - |
| 1777646879 | 9.44° C | 64% | 1008 hPa | 0 mm | 0.89 m/s, 257° | - | - |
| 1777646579 | 9.44° C | 64% | 1008 hPa | 0 mm | 1.79 m/s, 257° | - | - |
| 1777646279 | 9.44° C | 64% | 1008 hPa | 0 mm | 1.79 m/s, 263° | - | - |
| 1777645979 | 9.44° C | 65% | 1008 hPa | 0 mm | 1.34 m/s, 311° | - | - |
| 1777645679 | 9.44° C | 65% | 1008.4 hPa | 0 mm | 0.89 m/s, 348° | - | - |
| 1777645379 | 9.44° C | 65% | 1008.4 hPa | 0 mm | 3.13 m/s, 321° | - | - |
| 1777645079 | 9.44° C | 65% | 1008.4 hPa | 0 mm | 1.34 m/s, 356° | - | - |
| 1777644779 | 9.44° C | 66% | 1008 hPa | 0 mm | 1.34 m/s, 281° | - | - |
| 1777644479 | 8.89° C | 68% | 1008 hPa | 0 mm | 1.34 m/s, 296° | - | - |
* Rain latest hour (hover to see other rain measurements)
** Current wind speed in m/s (hover to see current wind gust speed)